Weather History for KROA - October, 2012

Change the Weather History Date:

Tuesday, October 2, 2012

  Actual Average Record
Temperature  
Mean Temperature 63 °F 62 °F  
Max Temperature 68 °F 73 °F 88 °F (1919)
Min Temperature 58 °F 51 °F 33 °F (1947)
Degree Days  
Heating Degree Days 2 5  
Month to date heating degree days 10 9  
Since 1 July heating degree days 44 58  
Cooling Degree Days 0 2  
Month to date cooling degree days 0 4  
Year to date cooling degree days 1406 1190  
Growing Degree Days 12 (Base 50)    
Moisture  
Dew Point 61 °F    
Average Humidity 94    
Maximum Humidity 100    
Minimum Humidity 87    
Precipitation  
Precipitation 0.48 in 0.09 in 4.03 in (1929)
Month to date precipitation 0.67 0.18  
Year to date precipitation 29.09 32.20  
Snow  
Snow 0.00 in - - ()
Month to date snowfall 0.0  
Since 1 July snowfall T  
Since 1 September snowfall 0.0  
Snow Depth 0.00 in    
Sea Level Pressure  
Sea Level Pressure 29.92 in    
Wind  
Wind Speed 2 mph (ENE)    
Max Wind Speed 8 mph    
Max Gust Speed 9 mph    
Visibility 2 miles    
Events Fog , Rain    
T = Trace of Precipitation, MM = Missing Value Source: NWS Daily Summary

Daily Weather History Graph

Daily Weather History Graph

Search for Another Location

Airport or City:

Trip Planner

Search our weather history database for the weather conditions in past years. The results will help you decide how hot, cold, wet, or windy it might be!

Date:

Astronomy

Oct. 02, 2012 Rise Set
Actual Time 7:16 AM EDT 7:00 PM EDT
Civil Twilight 6:50 AM EDT 7:26 PM EDT
Nautical Twilight 6:20 AM EDT 7:57 PM EDT
Astronomical Twilight 5:49 AM EDT 8:27 PM EDT
Moon 8:17 PM EDT (10/2) 9:38 AM EDT (10/2)
Length of Visible Light 12h 36m
Length of Day
11h 44m
Waning Gibbous, 94% of the Moon is Illuminated
Oct 2
Waning Gibbous
Oct 8
Last Quarter
Oct 15
New
Oct 21
First Quarter
Oct 29
Full

Hourly Weather History & Observations

Time (EDT) Temp. Dew Point Humidity Pressure Visibility Wind Dir Wind Speed Gust Speed Precip Events Conditions
12:54 AM 57.9 °F 57.0 °F 97% 29.91 in 2.0 mi Calm Calm - 0.06 in Rain Rain
1:54 AM 57.9 °F 57.0 °F 97% 29.92 in 2.0 mi Calm Calm - 0.25 in Rain Light Rain
2:54 AM 57.2 °F 57.2 °F 100% 29.91 in 2.0 mi Calm Calm - N/A Rain Light Rain
3:54 AM 57.9 °F 57.0 °F 97% 29.89 in 2.0 mi Calm Calm - 0.02 in   Overcast
4:54 AM 59.0 °F 57.0 °F 93% 29.89 in 2.0 mi Calm Calm - 0.01 in Rain Light Rain
5:54 AM 59.0 °F 57.0 °F 93% 29.88 in 2.0 mi North 3.5 mph - 0.01 in Rain Light Rain
6:54 AM 59.0 °F 57.0 °F 93% 29.89 in 2.0 mi NNE 4.6 mph - 0.09 in Rain Light Rain
7:21 AM 59.0 °F 57.2 °F 94% 29.91 in 5.0 mi NE 4.6 mph - 0.00 in Rain Light Rain
7:54 AM 59.0 °F 57.0 °F 93% 29.90 in 2.5 mi NNE 3.5 mph - 0.01 in Rain Light Rain
8:54 AM 60.1 °F 57.9 °F 93% 29.91 in 2.5 mi Calm Calm - 0.00 in   Light Drizzle
9:07 AM 60.8 °F 57.2 °F 88% 29.93 in 2.5 mi Calm Calm - 0.00 in   Light Drizzle
9:21 AM 60.8 °F 57.2 °F 88% 29.93 in 2.0 mi Calm Calm - 0.00 in   Light Drizzle
9:31 AM 60.8 °F 57.2 °F 88% 29.93 in 2.0 mi Calm Calm - 0.00 in   Light Drizzle
9:54 AM 61.0 °F 59.0 °F 93% 29.91 in 3.0 mi North 4.6 mph - 0.00 in   Light Drizzle
10:04 AM 60.8 °F 59.0 °F 94% 29.93 in 1.5 mi NNE 4.6 mph - 0.01 in   Light Drizzle
10:15 AM 60.8 °F 59.0 °F 94% 29.93 in 1.5 mi NE 3.5 mph - 0.02 in   Light Drizzle
10:54 AM 62.1 °F 60.1 °F 93% 29.93 in 1.5 mi NNE 3.5 mph - 0.03 in Rain Light Rain
11:54 AM 63.0 °F 61.0 °F 93% 29.93 in 2.0 mi NE 3.5 mph - 0.02 in   Overcast
12:54 PM 64.0 °F 61.0 °F 90% 29.92 in 2.0 mi NE 3.5 mph - N/A   Overcast
1:54 PM 64.9 °F 62.1 °F 90% 29.90 in 2.0 mi ESE 3.5 mph - N/A   Overcast
2:54 PM 66.9 °F 63.0 °F 87% 29.89 in 2.0 mi Calm Calm - N/A   Overcast
3:05 PM 66.2 °F 62.6 °F 88% 29.91 in 6.0 mi NE 3.5 mph - N/A   Overcast
3:54 PM 66.9 °F 63.0 °F 87% 29.88 in 6.0 mi Calm Calm - N/A   Overcast
4:54 PM 66.0 °F 64.0 °F 93% 29.89 in 6.0 mi Calm Calm - N/A   Overcast
5:54 PM 66.0 °F 64.0 °F 93% 29.91 in 4.0 mi SSE 3.5 mph - N/A   Overcast
6:22 PM 66.2 °F 64.4 °F 94% 29.93 in 4.0 mi ESE 4.6 mph - N/A   Mostly Cloudy
6:28 PM 66.2 °F 64.4 °F 94% 29.94 in 2.5 mi ESE 5.8 mph - N/A   Overcast
6:38 PM 66.2 °F 64.4 °F 94% 29.94 in 2.5 mi ESE 3.5 mph - N/A   Overcast
6:54 PM 66.9 °F 64.9 °F 93% 29.92 in 2.5 mi ESE 4.6 mph - N/A   Overcast
7:17 PM 66.2 °F 64.4 °F 94% 29.95 in 2.5 mi Calm Calm - N/A   Overcast
7:54 PM 66.9 °F 64.9 °F 93% 29.93 in 2.5 mi Calm Calm - N/A   Overcast
8:54 PM 66.9 °F 64.9 °F 93% 29.95 in 2.5 mi Calm Calm - N/A   Overcast
9:22 PM 66.2 °F 66.2 °F 100% 29.98 in 0.2 mi Calm Calm - N/A Fog Fog
9:54 PM 66.9 °F 66.0 °F 97% 29.97 in 0.2 mi Calm Calm - 0.00 in Fog Fog
10:54 PM 66.9 °F 66.0 °F 97% 29.98 in 0.8 mi Calm Calm - N/A   Overcast
11:08 PM 66.2 °F 66.2 °F 100% 30.00 in 1.5 mi Calm Calm - N/A   Overcast
11:54 PM 66.9 °F 66.0 °F 97% 29.99 in 1.5 mi Calm Calm - N/A   Overcast